This is the latest recevied weather packets stored in our database for station/object W1REE. If no packets are shown the sender has not sent any weather packets the latest 10 day(s).
| Time | Temp. | Humidity | Pressure | Rain* | Wind** | Luminosity | Snow |
|---|---|---|---|---|---|---|---|
| 1778027167 | 2.22° C | 97% | 1014.2 hPa | 0 mm | - | 8 W/m² | - |
| 1778026863 | 2.22° C | 97% | 1014.1 hPa | 1.27 mm | - | 8 W/m² | - |
| 1778026559 | 2.22° C | 97% | 1014.1 hPa | 1.27 mm | - | 12 W/m² | - |
| 1778026256 | 2.22° C | 97% | 1014 hPa | 0 mm | - | 12 W/m² | - |
| 1778025954 | 2.22° C | 97% | 1013.6 hPa | 0 mm | - | 10 W/m² | - |
| 1778025651 | 2.22° C | 97% | 1013.5 hPa | 0 mm | - | 11 W/m² | - |
| 1778025349 | 2.22° C | 97% | 1013.5 hPa | 0 mm | - | 14 W/m² | - |
| 1778025046 | 2.22° C | 97% | 1013.6 hPa | 0 mm | - | 15 W/m² | - |
| 1778024743 | 2.22° C | 96% | 1013.4 hPa | 0 mm | - | 25 W/m² | - |
| 1778024439 | 2.22° C | 96% | 1013.3 hPa | 0 mm | - | 29 W/m² | - |
| 1778024137 | 2.22° C | 96% | 1013.1 hPa | 0 mm | - | 32 W/m² | - |
| 1778023834 | 2.22° C | 96% | 1013 hPa | 1.78 mm | - | 29 W/m² | - |
| 1778023532 | 2.22° C | 96% | 1012.9 hPa | 1.78 mm | - | 35 W/m² | - |
| 1778023229 | 2.22° C | 96% | 1013 hPa | 1.27 mm | - | 30 W/m² | - |
| 1778022926 | 2.22° C | 96% | 1012.8 hPa | 1.27 mm | - | 32 W/m² | - |
| 1778022625 | 2.78° C | 96% | 1012.9 hPa | 1.78 mm | - | 34 W/m² | - |
| 1778022322 | 2.78° C | 96% | 1012.9 hPa | 1.78 mm | - | 43 W/m² | - |
| 1778022018 | 2.78° C | 96% | 1012.8 hPa | 0 mm | - | 37 W/m² | - |
| 1778021715 | 2.78° C | 96% | 1012.5 hPa | 0 mm | - | 44 W/m² | - |
| 1778021411 | 2.78° C | 96% | 1012.7 hPa | 0 mm | - | 54 W/m² | - |
| 1778021108 | 2.78° C | 96% | 1012.5 hPa | 0 mm | - | 46 W/m² | - |
| 1778020805 | 2.78° C | 96% | 1012.4 hPa | 0 mm | - | 69 W/m² | - |
| 1778020502 | 2.78° C | 96% | 1012.7 hPa | 0 mm | - | 57 W/m² | - |
| 1778020198 | 3.33° C | 96% | 1012.5 hPa | 0 mm | - | 73 W/m² | - |
| 1778019895 | 2.78° C | 96% | 1012.7 hPa | 0 mm | - | 70 W/m² | - |
* Rain latest hour (hover to see other rain measurements)
** Current wind speed in m/s (hover to see current wind gust speed)